Year,Month,Day,Hour,Minute,Value (Times are PST for temperature in C)
2006,09,14,00,00,11.70
2006,09,14,00,01,11.70
2006,09,14,00,02,11.70
2006,09,14,00,03,11.70
2006,09,14,00,04,11.70
2006,09,14,00,05,11.70
2006,09,14,00,06,11.70
2006,09,14,00,07,11.70
2006,09,14,00,08,11.70
2006,09,14,00,09,11.70
2006,09,14,00,10,11.70
2006,09,14,00,11,11.70
2006,09,14,00,12,11.70
2006,09,14,00,13,11.70
2006,09,14,00,14,11.70
2006,09,14,00,15,11.60
2006,09,14,00,16,11.60
2006,09,14,00,17,11.60
2006,09,14,00,18,11.60
2006,09,14,00,19,11.60
2006,09,14,00,20,11.60
2006,09,14,00,21,11.60
2006,09,14,00,22,11.60
2006,09,14,00,23,11.60
2006,09,14,00,24,11.60
2006,09,14,00,25,11.60
2006,09,14,00,26,11.60
2006,09,14,00,27,11.60
2006,09,14,00,28,11.60
2006,09,14,00,29,11.60
2006,09,14,00,30,11.60
2006,09,14,00,31,11.60
2006,09,14,00,32,11.60
2006,09,14,00,33,11.60
2006,09,14,00,34,11.60
2006,09,14,00,35,11.60
2006,09,14,00,36,11.60
2006,09,14,00,37,11.60
2006,09,14,00,38,11.60
2006,09,14,00,39,11.60
2006,09,14,00,40,11.60
2006,09,14,00,41,11.60
2006,09,14,00,42,11.60
2006,09,14,00,43,11.60
2006,09,14,00,44,11.60
2006,09,14,00,45,11.60
2006,09,14,00,46,11.60
2006,09,14,00,47,11.60
2006,09,14,00,48,11.60
2006,09,14,00,49,11.60
2006,09,14,00,50,11.60
2006,09,14,00,51,11.60
2006,09,14,00,52,11.60
2006,09,14,00,53,11.60
2006,09,14,00,54,11.60
2006,09,14,00,55,11.50
2006,09,14,00,56,11.40
2006,09,14,00,57,11.40
2006,09,14,00,58,11.40
2006,09,14,00,59,11.40
2006,09,14,01,00,11.40
2006,09,14,01,01,11.40
2006,09,14,01,02,11.40
2006,09,14,01,03,11.40
2006,09,14,01,04,11.40
2006,09,14,01,05,11.40
2006,09,14,01,06,11.40
2006,09,14,01,07,11.40
2006,09,14,01,08,11.40
2006,09,14,01,09,11.40
2006,09,14,01,10,11.40
2006,09,14,01,11,11.40
2006,09,14,01,12,11.40
2006,09,14,01,13,11.40
2006,09,14,01,14,11.40
2006,09,14,01,15,11.40
2006,09,14,01,16,11.40
2006,09,14,01,17,11.30
2006,09,14,01,18,11.30
2006,09,14,01,19,11.30
2006,09,14,01,20,11.30
2006,09,14,01,21,11.20
2006,09,14,01,22,11.20
2006,09,14,01,23,11.20
2006,09,14,01,24,11.20
2006,09,14,01,25,11.10
2006,09,14,01,26,11.10
2006,09,14,01,27,11.10
2006,09,14,01,28,11.10
2006,09,14,01,29,11.10
2006,09,14,01,30,11.10
2006,09,14,01,31,11.10
2006,09,14,01,32,11.10
2006,09,14,01,33,11.00
2006,09,14,01,34,10.90
2006,09,14,01,35,10.90
2006,09,14,01,36,10.90
2006,09,14,01,37,10.90
2006,09,14,01,38,10.90
2006,09,14,01,39,10.90
2006,09,14,01,40,10.90
2006,09,14,01,41,10.90
2006,09,14,01,42,10.90
2006,09,14,01,43,10.90
2006,09,14,01,44,10.90
2006,09,14,01,45,10.90
2006,09,14,01,46,10.90
2006,09,14,01,47,10.90
2006,09,14,01,48,10.90
2006,09,14,01,49,10.90
2006,09,14,01,50,10.90
2006,09,14,01,51,10.90
2006,09,14,01,52,10.90
2006,09,14,01,53,10.90
2006,09,14,01,54,10.90
2006,09,14,01,55,10.90
2006,09,14,01,56,10.80
2006,09,14,01,57,10.80
2006,09,14,01,58,10.80
2006,09,14,01,59,10.80
2006,09,14,02,00,10.80
2006,09,14,02,01,10.80
2006,09,14,02,02,10.80
2006,09,14,02,03,10.80
2006,09,14,02,04,10.70
2006,09,14,02,05,10.70
2006,09,14,02,06,10.70
2006,09,14,02,07,10.70
2006,09,14,02,08,10.70
2006,09,14,02,09,10.70
2006,09,14,02,10,10.70
2006,09,14,02,11,10.70
2006,09,14,02,12,10.70
2006,09,14,02,13,10.70
2006,09,14,02,14,10.70
2006,09,14,02,15,10.70
2006,09,14,02,16,10.70
2006,09,14,02,17,10.70
2006,09,14,02,18,10.60
2006,09,14,02,19,10.60
2006,09,14,02,20,10.60
2006,09,14,02,21,10.60
2006,09,14,02,22,10.60
2006,09,14,02,23,10.60
2006,09,14,02,24,10.60
2006,09,14,02,25,10.60
2006,09,14,02,26,10.60
2006,09,14,02,27,10.60
2006,09,14,02,28,10.60
2006,09,14,02,29,10.60
2006,09,14,02,30,10.60
2006,09,14,02,31,10.60
2006,09,14,02,32,10.60
2006,09,14,02,33,10.60
2006,09,14,02,34,10.60
2006,09,14,02,35,10.60
2006,09,14,02,36,10.60
2006,09,14,02,37,10.60
2006,09,14,02,38,10.50
2006,09,14,02,39,10.40
2006,09,14,02,40,10.40
2006,09,14,02,41,10.50
2006,09,14,02,42,10.60
2006,09,14,02,43,10.60
2006,09,14,02,44,10.60
2006,09,14,02,45,10.60
2006,09,14,02,46,10.40
2006,09,14,02,47,10.40
2006,09,14,02,48,10.40
2006,09,14,02,49,10.40
2006,09,14,02,50,10.40
2006,09,14,02,51,10.40
2006,09,14,02,52,10.40
2006,09,14,02,53,10.40
2006,09,14,02,54,10.40
2006,09,14,02,55,10.40
2006,09,14,02,56,10.40
2006,09,14,02,57,10.40
2006,09,14,02,58,10.40
2006,09,14,02,59,10.40
2006,09,14,03,00,10.40
2006,09,14,03,01,10.40
2006,09,14,03,02,10.40
2006,09,14,03,03,10.40
2006,09,14,03,04,10.40
2006,09,14,03,05,10.40
2006,09,14,03,06,10.40
2006,09,14,03,07,10.40
2006,09,14,03,08,10.40
2006,09,14,03,09,10.40
2006,09,14,03,10,10.40
2006,09,14,03,11,10.40
2006,09,14,03,12,10.40
2006,09,14,03,13,10.40
2006,09,14,03,14,10.40
2006,09,14,03,15,10.40
2006,09,14,03,16,10.30
2006,09,14,03,17,10.30
2006,09,14,03,18,10.30
2006,09,14,03,19,10.30
2006,09,14,03,20,10.30
2006,09,14,03,21,10.30
2006,09,14,03,22,10.20
2006,09,14,03,23,10.20
2006,09,14,03,24,10.20
2006,09,14,03,25,10.10
2006,09,14,03,26,10.10
2006,09,14,03,27,10.10
2006,09,14,03,28,10.10
2006,09,14,03,29,10.00
2006,09,14,03,30,9.90
2006,09,14,03,31,9.90
2006,09,14,03,32,9.90
2006,09,14,03,33,9.90
2006,09,14,03,34,9.90
2006,09,14,03,35,9.90
2006,09,14,03,36,9.90
2006,09,14,03,37,9.90
2006,09,14,03,38,9.90
2006,09,14,03,39,9.90
2006,09,14,03,40,9.90
2006,09,14,03,41,9.90
2006,09,14,03,42,9.90
2006,09,14,03,43,9.80
2006,09,14,03,44,9.80
2006,09,14,03,45,9.80
2006,09,14,03,46,9.80
2006,09,14,03,47,9.80
2006,09,14,03,48,9.80
2006,09,14,03,49,9.80
2006,09,14,03,50,9.80
2006,09,14,03,51,9.80
2006,09,14,03,52,9.80
2006,09,14,03,53,9.80
2006,09,14,03,54,9.80
2006,09,14,03,55,9.80
2006,09,14,03,56,9.80
2006,09,14,03,57,9.80
2006,09,14,03,58,9.80
2006,09,14,03,59,9.80
2006,09,14,04,00,9.80
2006,09,14,04,01,9.70
2006,09,14,04,02,9.70
2006,09,14,04,03,9.70
2006,09,14,04,04,9.70
2006,09,14,04,05,9.70
2006,09,14,04,06,9.70
2006,09,14,04,07,9.70
2006,09,14,04,08,9.70
2006,09,14,04,09,9.70
2006,09,14,04,10,9.70
2006,09,14,04,11,9.70
2006,09,14,04,12,9.60
2006,09,14,04,13,9.60
2006,09,14,04,14,9.60
2006,09,14,04,15,9.60
2006,09,14,04,16,9.50
2006,09,14,04,17,9.50
2006,09,14,04,18,9.50
2006,09,14,04,19,9.40
2006,09,14,04,20,9.40
2006,09,14,04,21,9.40
2006,09,14,04,22,9.30
2006,09,14,04,23,9.30
2006,09,14,04,24,9.20
2006,09,14,04,25,9.20
2006,09,14,04,26,9.20
2006,09,14,04,27,9.20
2006,09,14,04,28,9.20
2006,09,14,04,29,9.10
2006,09,14,04,30,9.10
2006,09,14,04,31,9.10
2006,09,14,04,32,9.00
2006,09,14,04,33,9.00
2006,09,14,04,34,9.00
2006,09,14,04,35,9.00
2006,09,14,04,36,8.90
2006,09,14,04,37,8.90
2006,09,14,04,38,8.80
2006,09,14,04,39,8.80
2006,09,14,04,40,8.70
2006,09,14,04,41,8.70
2006,09,14,04,42,8.70
2006,09,14,04,43,8.70
2006,09,14,04,44,8.70
2006,09,14,04,45,8.70
2006,09,14,04,46,8.60
2006,09,14,04,47,8.60
2006,09,14,04,48,8.60
2006,09,14,04,49,8.60
2006,09,14,04,50,8.50
2006,09,14,04,51,8.50
2006,09,14,04,52,8.50
2006,09,14,04,53,8.40
2006,09,14,04,54,8.40
2006,09,14,04,55,8.40
2006,09,14,04,56,8.30
2006,09,14,04,57,8.30
2006,09,14,04,58,8.30
2006,09,14,04,59,8.20
2006,09,14,05,00,8.20
2006,09,14,05,01,8.20
2006,09,14,05,02,8.20
2006,09,14,05,03,8.20
2006,09,14,05,04,8.20
2006,09,14,05,05,8.20
2006,09,14,05,06,8.10
2006,09,14,05,07,8.10
2006,09,14,05,08,8.10
2006,09,14,05,09,8.10
2006,09,14,05,10,8.10
2006,09,14,05,11,8.00
2006,09,14,05,12,8.00
2006,09,14,05,13,8.00
2006,09,14,05,14,8.00
2006,09,14,05,15,8.00
2006,09,14,05,16,7.90
2006,09,14,05,17,7.90
2006,09,14,05,18,7.90
2006,09,14,05,19,7.90
2006,09,14,05,20,7.90
2006,09,14,05,21,7.90
2006,09,14,05,22,7.90
2006,09,14,05,23,7.90
2006,09,14,05,24,7.80
2006,09,14,05,25,7.80
2006,09,14,05,26,7.80
2006,09,14,05,27,7.80
2006,09,14,05,28,7.80
2006,09,14,05,29,7.80
2006,09,14,05,30,7.80
2006,09,14,05,31,7.80
2006,09,14,05,32,7.80
2006,09,14,05,33,7.80
2006,09,14,05,34,7.80
2006,09,14,05,35,7.80
2006,09,14,05,36,7.80
2006,09,14,05,37,7.80
2006,09,14,05,38,7.80
2006,09,14,05,39,7.70
2006,09,14,05,40,7.70
2006,09,14,05,41,7.70
2006,09,14,05,42,7.70
2006,09,14,05,43,7.70
2006,09,14,05,44,7.70
2006,09,14,05,45,7.70
2006,09,14,05,46,7.70
2006,09,14,05,47,7.70
2006,09,14,05,48,7.70
2006,09,14,05,49,7.70
2006,09,14,05,50,7.60
2006,09,14,05,51,7.60
2006,09,14,05,52,7.60
2006,09,14,05,53,7.60
2006,09,14,05,54,7.50
2006,09,14,05,55,7.50
2006,09,14,05,56,7.50
2006,09,14,05,57,7.50
2006,09,14,05,58,7.50
2006,09,14,05,59,7.40
2006,09,14,06,00,7.40
2006,09,14,06,01,7.40
2006,09,14,06,02,7.40
2006,09,14,06,03,7.40
2006,09,14,06,04,7.40
2006,09,14,06,05,7.30
2006,09,14,06,06,7.30
2006,09,14,06,07,7.30
2006,09,14,06,08,7.30
2006,09,14,06,09,7.30
2006,09,14,06,10,7.30
2006,09,14,06,11,7.30
2006,09,14,06,12,7.30
2006,09,14,06,13,7.30
2006,09,14,06,14,7.30
2006,09,14,06,15,7.20
2006,09,14,06,16,7.20
2006,09,14,06,17,7.20
2006,09,14,06,18,7.20
2006,09,14,06,19,7.20
2006,09,14,06,20,7.20
2006,09,14,06,21,7.10
2006,09,14,06,22,7.10
2006,09,14,06,23,7.10
2006,09,14,06,24,7.00
2006,09,14,06,25,7.00
2006,09,14,06,26,7.00
2006,09,14,06,27,7.00
2006,09,14,06,28,6.90
2006,09,14,06,29,6.90
2006,09,14,06,30,6.90
2006,09,14,06,31,7.00
2006,09,14,06,32,7.00
2006,09,14,06,33,7.00
2006,09,14,06,34,7.00
2006,09,14,06,35,7.00
2006,09,14,06,36,7.00
2006,09,14,06,37,7.00
2006,09,14,06,38,7.00
2006,09,14,06,39,7.00
2006,09,14,06,40,6.90
2006,09,14,06,41,6.90
2006,09,14,06,42,6.90
2006,09,14,06,43,6.90
2006,09,14,06,44,6.90
2006,09,14,06,45,6.90
2006,09,14,06,46,6.90
2006,09,14,06,47,6.90
2006,09,14,06,48,6.90
2006,09,14,06,49,6.90
2006,09,14,06,50,6.90
2006,09,14,06,51,6.80
2006,09,14,06,52,6.80
2006,09,14,06,53,6.80
2006,09,14,06,54,6.80
2006,09,14,06,55,6.80
2006,09,14,06,56,6.80
2006,09,14,06,57,6.80
2006,09,14,06,58,6.80
2006,09,14,06,59,6.90
2006,09,14,07,00,6.90
2006,09,14,07,01,6.80
2006,09,14,07,02,6.80
2006,09,14,07,03,6.80
2006,09,14,07,04,6.80
2006,09,14,07,05,6.80
2006,09,14,07,06,6.80
2006,09,14,07,07,6.80
2006,09,14,07,08,6.80
2006,09,14,07,09,6.80
2006,09,14,07,10,6.80
2006,09,14,07,11,6.80
2006,09,14,07,12,6.70
2006,09,14,07,13,6.70
2006,09,14,07,14,6.70
2006,09,14,07,15,6.70
2006,09,14,07,16,6.70
2006,09,14,07,17,6.70
2006,09,14,07,18,6.70
2006,09,14,07,19,6.70
2006,09,14,07,20,6.70
2006,09,14,07,21,6.60
2006,09,14,07,22,6.60
2006,09,14,07,23,6.60
2006,09,14,07,24,6.60
2006,09,14,07,25,6.60
2006,09,14,07,26,6.60
2006,09,14,07,27,6.60
2006,09,14,07,28,6.60
2006,09,14,07,29,6.60
2006,09,14,07,30,6.60
2006,09,14,07,31,6.60
2006,09,14,07,32,6.60
2006,09,14,07,33,6.60
2006,09,14,07,34,6.70
2006,09,14,07,35,6.70
2006,09,14,07,36,6.70
2006,09,14,07,37,6.70
2006,09,14,07,38,6.80
2006,09,14,07,39,6.80
2006,09,14,07,40,6.80
2006,09,14,07,41,6.80
2006,09,14,07,42,6.80
2006,09,14,07,43,6.80
2006,09,14,07,44,6.80
2006,09,14,07,45,6.80
2006,09,14,07,46,6.80
2006,09,14,07,47,6.80
2006,09,14,07,48,6.80
2006,09,14,07,49,6.80
2006,09,14,07,50,6.80
2006,09,14,07,51,6.80
2006,09,14,07,52,6.80
2006,09,14,07,53,6.80
2006,09,14,07,54,6.80
2006,09,14,07,55,6.80
2006,09,14,07,56,6.80
2006,09,14,07,57,6.80
2006,09,14,07,58,6.80
2006,09,14,07,59,6.80
2006,09,14,08,00,6.90
2006,09,14,08,01,6.90
2006,09,14,08,02,6.90
2006,09,14,08,03,6.90
2006,09,14,08,04,6.90
2006,09,14,08,05,6.90
2006,09,14,08,06,6.90
2006,09,14,08,07,6.90
2006,09,14,08,08,7.00
2006,09,14,08,09,7.00
2006,09,14,08,10,7.00
2006,09,14,08,11,7.00
2006,09,14,08,12,7.00
2006,09,14,08,13,7.00
2006,09,14,08,14,7.00
2006,09,14,08,15,7.10
2006,09,14,08,16,7.10
2006,09,14,08,17,7.10
2006,09,14,08,18,7.10
2006,09,14,08,19,7.20
2006,09,14,08,20,7.20
2006,09,14,08,21,7.30
2006,09,14,08,22,7.30
2006,09,14,08,23,7.30
2006,09,14,08,24,7.40
2006,09,14,08,25,7.50
2006,09,14,08,26,7.50
2006,09,14,08,27,7.60
2006,09,14,08,28,7.60
2006,09,14,08,29,7.70
2006,09,14,08,30,7.80
2006,09,14,08,31,7.80
2006,09,14,08,32,7.80
2006,09,14,08,33,7.90
2006,09,14,08,34,8.00
2006,09,14,08,35,8.00
2006,09,14,08,36,8.20
2006,09,14,08,37,8.20
2006,09,14,08,38,8.40
2006,09,14,08,39,8.50
2006,09,14,08,40,8.50
2006,09,14,08,41,8.70
2006,09,14,08,42,8.80
2006,09,14,08,43,8.90
2006,09,14,08,44,9.00
2006,09,14,08,45,9.10
2006,09,14,08,46,9.20
2006,09,14,08,47,9.30
2006,09,14,08,48,9.40
2006,09,14,08,49,9.50
2006,09,14,08,50,9.60
2006,09,14,08,51,9.70
2006,09,14,08,52,9.70
2006,09,14,08,53,9.90
2006,09,14,08,54,10.00
2006,09,14,08,55,10.10
2006,09,14,08,56,10.30
2006,09,14,08,57,10.40
2006,09,14,08,58,10.60
2006,09,14,08,59,10.60
2006,09,14,09,00,10.80
2006,09,14,09,01,10.90
2006,09,14,09,02,11.00
2006,09,14,09,03,11.10
2006,09,14,09,04,11.20
2006,09,14,09,05,11.30
2006,09,14,09,06,11.40
2006,09,14,09,07,11.50
2006,09,14,09,08,11.60
2006,09,14,09,09,11.70
2006,09,14,09,10,11.70
2006,09,14,09,11,11.80
2006,09,14,09,12,11.90
2006,09,14,09,13,12.00
2006,09,14,09,14,12.00
2006,09,14,09,15,12.10
2006,09,14,09,16,12.20
2006,09,14,09,17,12.20
2006,09,14,09,18,12.30
2006,09,14,09,19,12.30
2006,09,14,09,20,12.40
2006,09,14,09,21,12.40
2006,09,14,09,22,12.50
2006,09,14,09,23,12.50
2006,09,14,09,24,12.50
2006,09,14,09,25,12.60
2006,09,14,09,26,12.60
2006,09,14,09,27,12.70
2006,09,14,09,28,12.80
2006,09,14,09,29,12.80
2006,09,14,09,30,12.80
2006,09,14,09,31,12.80
2006,09,14,09,32,12.80
2006,09,14,09,33,12.90
2006,09,14,09,34,12.90
2006,09,14,09,35,12.90
2006,09,14,09,36,12.90
2006,09,14,09,37,13.00
2006,09,14,09,38,13.00
2006,09,14,09,39,13.00
2006,09,14,09,40,13.10
2006,09,14,09,41,13.10
2006,09,14,09,42,13.10
2006,09,14,09,43,13.20
2006,09,14,09,44,13.20
2006,09,14,09,45,13.20
2006,09,14,09,46,13.30
2006,09,14,09,47,13.30
2006,09,14,09,48,13.30
2006,09,14,09,49,13.40
2006,09,14,09,50,13.40
2006,09,14,09,51,13.50
2006,09,14,09,52,13.50
2006,09,14,09,53,13.50
2006,09,14,09,54,13.50
2006,09,14,09,55,13.60
2006,09,14,09,56,13.60
2006,09,14,09,57,13.60
2006,09,14,09,58,13.60
2006,09,14,09,59,13.70
2006,09,14,10,00,13.70
2006,09,14,10,01,13.70
2006,09,14,10,02,13.70
2006,09,14,10,03,13.70
2006,09,14,10,04,13.70
2006,09,14,10,05,13.70
2006,09,14,10,06,13.80
2006,09,14,10,07,13.80
2006,09,14,10,08,13.80
2006,09,14,10,09,13.90
2006,09,14,10,10,13.90
2006,09,14,10,11,13.90
2006,09,14,10,12,13.90
2006,09,14,10,13,13.90
2006,09,14,10,14,13.90
2006,09,14,10,15,13.90
2006,09,14,10,16,13.90
2006,09,14,10,17,13.90
2006,09,14,10,18,13.90
2006,09,14,10,19,13.90
2006,09,14,10,20,13.90
2006,09,14,10,21,13.90
2006,09,14,10,22,13.90
2006,09,14,10,23,13.90
2006,09,14,10,24,13.90
2006,09,14,10,25,13.90
2006,09,14,10,26,13.90
2006,09,14,10,27,13.90
2006,09,14,10,28,13.90
2006,09,14,10,29,14.00
2006,09,14,10,30,14.00
2006,09,14,10,31,14.00
2006,09,14,10,32,14.00
2006,09,14,10,33,14.10
2006,09,14,10,34,14.10
2006,09,14,10,35,14.10
2006,09,14,10,36,14.10
2006,09,14,10,37,14.10
2006,09,14,10,38,14.10
2006,09,14,10,39,14.10
2006,09,14,10,40,14.10
2006,09,14,10,41,14.10
2006,09,14,10,42,14.10
2006,09,14,10,43,14.00
2006,09,14,10,44,14.00
2006,09,14,10,45,13.90
2006,09,14,10,46,13.80
2006,09,14,10,47,13.70
2006,09,14,10,48,13.70
2006,09,14,10,49,13.60
2006,09,14,10,50,13.50
2006,09,14,10,51,13.40
2006,09,14,10,52,13.40
2006,09,14,10,53,13.30
2006,09,14,10,54,13.30
2006,09,14,10,55,13.30
2006,09,14,10,56,13.20
2006,09,14,10,57,13.20
2006,09,14,10,58,13.20
2006,09,14,10,59,13.10
2006,09,14,11,00,13.10
2006,09,14,11,01,13.00
2006,09,14,11,02,13.00
2006,09,14,11,03,13.00
2006,09,14,11,04,13.00
2006,09,14,11,05,13.00
2006,09,14,11,06,13.00
2006,09,14,11,07,13.00
2006,09,14,11,08,13.00
2006,09,14,11,09,12.90
2006,09,14,11,10,12.90
2006,09,14,11,11,12.80
2006,09,14,11,12,12.80
2006,09,14,11,13,12.80
2006,09,14,11,14,12.80
2006,09,14,11,15,12.80
2006,09,14,11,16,12.80
2006,09,14,11,17,12.80
2006,09,14,11,18,12.80
2006,09,14,11,19,12.80
2006,09,14,11,20,12.80
2006,09,14,11,21,12.80
2006,09,14,11,22,12.90
2006,09,14,11,23,12.90
2006,09,14,11,24,12.90
2006,09,14,11,25,12.90
2006,09,14,11,26,12.90
2006,09,14,11,27,12.90
2006,09,14,11,28,12.90
2006,09,14,11,29,12.90
2006,09,14,11,30,12.90
2006,09,14,11,31,12.80
2006,09,14,11,32,12.80
2006,09,14,11,33,12.80
2006,09,14,11,34,12.80
2006,09,14,11,35,12.80
2006,09,14,11,36,12.80
2006,09,14,11,37,12.80
2006,09,14,11,38,12.80
2006,09,14,11,39,12.80
2006,09,14,11,40,12.80
2006,09,14,11,41,12.80
2006,09,14,11,42,12.80
2006,09,14,11,43,12.80
2006,09,14,11,44,12.80
2006,09,14,11,45,12.80
2006,09,14,11,46,12.80
2006,09,14,11,47,12.90
2006,09,14,11,48,12.90
2006,09,14,11,49,12.90
2006,09,14,11,50,12.90
2006,09,14,11,51,12.90
2006,09,14,11,52,12.90
2006,09,14,11,53,12.90
2006,09,14,11,54,12.90
2006,09,14,11,55,12.90
2006,09,14,11,56,12.90
2006,09,14,11,57,12.90
2006,09,14,11,58,13.00
2006,09,14,11,59,13.00
2006,09,14,12,00,13.10
2006,09,14,12,01,13.10
2006,09,14,12,02,13.20
2006,09,14,12,03,13.30
2006,09,14,12,04,13.30
2006,09,14,12,05,13.30
2006,09,14,12,06,13.30
2006,09,14,12,07,13.30
2006,09,14,12,08,13.30
2006,09,14,12,09,13.30
2006,09,14,12,10,13.30
2006,09,14,12,11,13.30
2006,09,14,12,12,13.30
2006,09,14,12,13,13.30
2006,09,14,12,14,13.30
2006,09,14,12,15,13.40
2006,09,14,12,16,13.40
2006,09,14,12,17,13.50
2006,09,14,12,18,13.50
2006,09,14,12,19,13.50
2006,09,14,12,20,13.50
2006,09,14,12,21,13.50
2006,09,14,12,22,13.50
2006,09,14,12,23,13.50
2006,09,14,12,24,13.50
2006,09,14,12,25,13.50
2006,09,14,12,26,13.60
2006,09,14,12,27,13.60
2006,09,14,12,28,13.70
2006,09,14,12,29,13.70
2006,09,14,12,30,13.80
2006,09,14,12,31,13.90
2006,09,14,12,32,13.90
2006,09,14,12,33,13.90
2006,09,14,12,34,13.90
2006,09,14,12,35,13.90
2006,09,14,12,36,14.00
2006,09,14,12,37,14.00
2006,09,14,12,38,14.10
2006,09,14,12,39,14.10
2006,09,14,12,40,14.20
2006,09,14,12,41,14.20
2006,09,14,12,42,14.30
2006,09,14,12,43,14.40
2006,09,14,12,44,14.40
2006,09,14,12,45,14.30
2006,09,14,12,46,14.20
2006,09,14,12,47,14.20
2006,09,14,12,48,14.30
2006,09,14,12,49,14.40
2006,09,14,12,50,14.50
2006,09,14,12,51,14.50
2006,09,14,12,52,14.50
2006,09,14,12,53,14.60
2006,09,14,12,54,14.60
2006,09,14,12,55,14.60
2006,09,14,12,56,14.70
2006,09,14,12,57,14.70
2006,09,14,12,58,14.80
2006,09,14,12,59,14.80
2006,09,14,13,00,14.70
2006,09,14,13,01,14.70
2006,09,14,13,02,14.70
2006,09,14,13,03,14.70
2006,09,14,13,04,14.70
2006,09,14,13,05,14.70
2006,09,14,13,06,14.70
2006,09,14,13,07,14.80
2006,09,14,13,08,14.80
2006,09,14,13,09,14.80
2006,09,14,13,10,14.90
2006,09,14,13,11,14.90
2006,09,14,13,12,14.90
2006,09,14,13,13,14.90
2006,09,14,13,14,14.80
2006,09,14,13,15,14.80
2006,09,14,13,16,14.80
2006,09,14,13,17,14.80
2006,09,14,13,18,14.80
2006,09,14,13,19,14.80
2006,09,14,13,20,14.80
2006,09,14,13,21,14.80
2006,09,14,13,22,14.80
2006,09,14,13,23,14.90
2006,09,14,13,24,14.90
2006,09,14,13,25,14.90
2006,09,14,13,26,14.90
2006,09,14,13,27,15.00
2006,09,14,13,28,15.00
2006,09,14,13,29,15.10
2006,09,14,13,30,15.10
2006,09,14,13,31,15.20
2006,09,14,13,32,15.20
2006,09,14,13,33,15.10
2006,09,14,13,34,15.10
2006,09,14,13,35,15.10
2006,09,14,13,36,15.10
2006,09,14,13,37,15.20
2006,09,14,13,38,15.20
2006,09,14,13,39,15.30
2006,09,14,13,40,15.30
2006,09,14,13,41,15.30
2006,09,14,13,42,15.10
2006,09,14,13,43,15.00
2006,09,14,13,44,15.00
2006,09,14,13,45,14.90
2006,09,14,13,46,14.90
2006,09,14,13,47,14.90
2006,09,14,13,48,15.00
2006,09,14,13,49,15.10
2006,09,14,13,50,15.20
2006,09,14,13,51,15.40
2006,09,14,13,52,15.40
2006,09,14,13,53,15.50
2006,09,14,13,54,15.50
2006,09,14,13,55,15.60
2006,09,14,13,56,15.60
2006,09,14,13,57,15.70
2006,09,14,13,58,15.80
2006,09,14,13,59,15.80
2006,09,14,14,00,15.80
2006,09,14,14,01,15.60
2006,09,14,14,02,15.50
2006,09,14,14,03,15.40
2006,09,14,14,04,15.40
2006,09,14,14,05,15.50
2006,09,14,14,06,15.50
2006,09,14,14,07,15.50
2006,09,14,14,08,15.40
2006,09,14,14,09,15.30
2006,09,14,14,10,15.40
2006,09,14,14,11,15.40
2006,09,14,14,12,15.50
2006,09,14,14,13,15.50
2006,09,14,14,14,15.50
2006,09,14,14,15,15.50
2006,09,14,14,16,15.50
2006,09,14,14,17,15.60
2006,09,14,14,18,15.60
2006,09,14,14,19,15.60
2006,09,14,14,20,15.60
2006,09,14,14,21,15.70
2006,09,14,14,22,15.70
2006,09,14,14,23,15.70
2006,09,14,14,24,15.70
2006,09,14,14,25,15.60
2006,09,14,14,26,15.40
2006,09,14,14,27,15.40
2006,09,14,14,28,15.50
2006,09,14,14,29,15.50
2006,09,14,14,30,15.50
2006,09,14,14,31,15.40
2006,09,14,14,32,15.40
2006,09,14,14,33,15.50
2006,09,14,14,34,15.50
2006,09,14,14,35,15.70
2006,09,14,14,36,15.70
2006,09,14,14,37,15.90
2006,09,14,14,38,16.00
2006,09,14,14,39,16.20
2006,09,14,14,40,16.30
2006,09,14,14,41,16.30
2006,09,14,14,42,16.30
2006,09,14,14,43,16.20
2006,09,14,14,44,16.30
2006,09,14,14,45,16.40
2006,09,14,14,46,16.40
2006,09,14,14,47,16.60
2006,09,14,14,48,16.60
2006,09,14,14,49,16.60
2006,09,14,14,50,16.60
2006,09,14,14,51,16.50
2006,09,14,14,52,16.40
2006,09,14,14,53,16.40
2006,09,14,14,54,16.20
2006,09,14,14,55,16.00
2006,09,14,14,56,15.80
2006,09,14,14,57,15.70
2006,09,14,14,58,15.70
2006,09,14,14,59,15.60
2006,09,14,15,00,15.50
2006,09,14,15,01,15.50
2006,09,14,15,02,15.40
2006,09,14,15,03,15.20
2006,09,14,15,04,15.10
2006,09,14,15,05,15.00
2006,09,14,15,06,14.90
2006,09,14,15,07,14.70
2006,09,14,15,08,14.60
2006,09,14,15,09,14.50
2006,09,14,15,10,14.60
2006,09,14,15,11,14.60
2006,09,14,15,12,14.50
2006,09,14,15,13,14.40
2006,09,14,15,14,14.30
2006,09,14,15,15,14.40
2006,09,14,15,16,14.40
2006,09,14,15,17,14.40
2006,09,14,15,18,14.20
2006,09,14,15,19,14.20
2006,09,14,15,20,14.20
2006,09,14,15,21,14.20
2006,09,14,15,22,14.30
2006,09,14,15,23,14.30
2006,09,14,15,24,14.30
2006,09,14,15,25,14.40
2006,09,14,15,26,14.30
2006,09,14,15,27,14.40
2006,09,14,15,28,14.40
2006,09,14,15,29,14.40
2006,09,14,15,30,14.40
2006,09,14,15,31,14.30
2006,09,14,15,32,14.40
2006,09,14,15,33,14.40
2006,09,14,15,34,14.50
2006,09,14,15,35,14.50
2006,09,14,15,36,14.60
2006,09,14,15,37,14.60
2006,09,14,15,38,14.50
2006,09,14,15,39,14.40
2006,09,14,15,40,14.30
2006,09,14,15,41,14.30
2006,09,14,15,42,14.30
2006,09,14,15,43,14.20
2006,09,14,15,44,14.00
2006,09,14,15,45,13.90
2006,09,14,15,46,13.90
2006,09,14,15,47,13.80
2006,09,14,15,48,13.70
2006,09,14,15,49,13.70
2006,09,14,15,50,13.70
2006,09,14,15,51,13.70
2006,09,14,15,52,13.70
2006,09,14,15,53,13.70
2006,09,14,15,54,13.70
2006,09,14,15,55,13.70
2006,09,14,15,56,13.70
2006,09,14,15,57,13.70
2006,09,14,15,58,13.70
2006,09,14,15,59,13.70
2006,09,14,16,00,13.70
2006,09,14,16,01,13.80
2006,09,14,16,02,13.80
2006,09,14,16,03,13.80
2006,09,14,16,04,13.80
2006,09,14,16,05,13.80
2006,09,14,16,06,13.80
2006,09,14,16,07,13.80
2006,09,14,16,08,13.80
2006,09,14,16,09,13.90
2006,09,14,16,10,13.90
2006,09,14,16,11,13.90
2006,09,14,16,12,13.90
2006,09,14,16,13,13.90
2006,09,14,16,14,13.80
2006,09,14,16,15,13.80
2006,09,14,16,16,13.80
2006,09,14,16,17,13.80
2006,09,14,16,18,13.70
2006,09,14,16,19,13.70
2006,09,14,16,20,13.70
2006,09,14,16,21,13.70
2006,09,14,16,22,13.70
2006,09,14,16,23,13.70
2006,09,14,16,24,13.70
2006,09,14,16,25,13.70
2006,09,14,16,26,13.70
2006,09,14,16,27,13.70
2006,09,14,16,28,13.70
2006,09,14,16,29,13.70
2006,09,14,16,30,13.70
2006,09,14,16,31,13.70
2006,09,14,16,32,13.60
2006,09,14,16,33,13.60
2006,09,14,16,34,13.60
2006,09,14,16,35,13.60
2006,09,14,16,36,13.60
2006,09,14,16,37,13.60
2006,09,14,16,38,13.60
2006,09,14,16,39,13.70
2006,09,14,16,40,13.70
2006,09,14,16,41,13.70
2006,09,14,16,42,13.70
2006,09,14,16,43,13.70
2006,09,14,16,44,13.70
2006,09,14,16,45,13.70
2006,09,14,16,46,13.70
2006,09,14,16,47,13.80
2006,09,14,16,48,13.80
2006,09,14,16,49,13.80
2006,09,14,16,50,13.90
2006,09,14,16,51,13.90
2006,09,14,16,52,13.90
2006,09,14,16,53,13.90
2006,09,14,16,54,13.90
2006,09,14,16,55,13.90
2006,09,14,16,56,13.90
2006,09,14,16,57,13.90
2006,09,14,16,58,13.90
2006,09,14,16,59,13.90
2006,09,14,17,00,13.90
2006,09,14,17,01,13.90
2006,09,14,17,02,13.90
2006,09,14,17,03,13.90
2006,09,14,17,04,14.00
2006,09,14,17,05,14.00
2006,09,14,17,06,14.00
2006,09,14,17,07,13.90
2006,09,14,17,08,13.90
2006,09,14,17,09,13.90
2006,09,14,17,10,13.90
2006,09,14,17,11,13.90
2006,09,14,17,12,14.00
2006,09,14,17,13,14.00
2006,09,14,17,14,14.00
2006,09,14,17,15,14.00
2006,09,14,17,16,13.90
2006,09,14,17,17,13.90
2006,09,14,17,18,13.90
2006,09,14,17,19,13.90
2006,09,14,17,20,14.00
2006,09,14,17,21,14.00
2006,09,14,17,22,14.00
2006,09,14,17,23,13.90
2006,09,14,17,24,14.00
2006,09,14,17,25,14.00
2006,09,14,17,26,13.90
2006,09,14,17,27,13.90
2006,09,14,17,28,13.90
2006,09,14,17,29,13.90
2006,09,14,17,30,13.90
2006,09,14,17,31,13.90
2006,09,14,17,32,13.90
2006,09,14,17,33,13.90